"Pseudo-MPEC" for P10QhFO

Created 2019 Aug 19 2:07:03 UT using Find_Orb

Click here for an explanation of pseudo-MPECs

 
 Astrometry: 
     P10QhFO  C2019 08 05Kbv.p/)Astrometryb-*VyK=.*Zredacted;P%LM1_p,^2lOdrk:F51
     P10QhFO  C2019 08 05a#cclick#1mZd?Qr#eMTjy[U_QC=.L[qherev`3yJ6dqpNjforH!F51
     P10QhFO  C2019 08 05ngNXM]32hO0`8\A.=YAq)W[(dk*e9q9;)fR=explanationStFcZF51

Station data:
(F51) Pan-STARRS 1, Haleakala  (N20.707235 W156.255910)  US/Hawaii.
   Observers N. Primak, A. Schultz, S. Watters, J. Thiel, T. Goggia. Measurer
   PS1 Science Consortium. 1.8-m Ritchey-Chrétien + CCD.

Orbital elements:  P10QhFO
   Perihelion 2019 Jul 16.022372 +/- 73.5 TT =  0:32:12 (JD 2458680.522372)
Epoch 2019 Aug  6.0 TT = JDT 2458701.5   Earth MOID: 0.3736   AutoNEOCP
M   4.70208977 +/- 100              (J2000 ecliptic)
n   0.22414782 +/- 0.555            Peri.  277.83745 +/- 100
a   2.68398260 +/- 4.43             Node    75.28550 +/- 46
e   0.5027733 +/- 0.262             Incl.    8.83798 +/- 60
P   4.40                   H 18.7   G  0.15   U 12.3  SR
q 1.33454760 +/- 0.448    Q 4.03341759 +/- 13.4
From 3 observations 2019 Aug. 5 (16.8 min); mean residual 0".03
Residuals in arcseconds: 
190805 F51  .01+  .03+    190805 F51  .02-  .05-    190805 F51  .01+  .03+    

Ephemerides (geocentric):
Date (UTC) HH   RA              Dec         delta   r     elong  mag " sig PA
---- -- -- --  -------------   -----------  ------ ------ -----  --- ---- ---
2019 08 19 02  04 23 05.901   +12 33 51.68  1.1406 1.3816  79.6 21.5  61d   7
2019 08 19 03  04 23 12.385   +12 34 14.02  1.1405 1.3817  79.6 21.5  61d   7
2019 08 19 04  04 23 18.866   +12 34 36.35  1.1404 1.3818  79.6 21.5  61d   7
2019 08 19 05  04 23 25.345   +12 34 58.67  1.1403 1.3819  79.6 21.5  61d   7
2019 08 19 06  04 23 31.822   +12 35 20.96  1.1402 1.3820  79.7 21.5  61d   7
2019 08 19 07  04 23 38.296   +12 35 43.24  1.1401 1.3822  79.7 21.5  61d   7
2019 08 19 08  04 23 44.769   +12 36 05.51  1.1400 1.3823  79.7 21.5  61d   7
2019 08 19 09  04 23 51.239   +12 36 27.75  1.1399 1.3824  79.7 21.5  61d   7
2019 08 19 10  04 23 57.706   +12 36 49.99  1.1398 1.3825  79.7 21.5  61d   7
2019 08 19 11  04 24 04.172   +12 37 12.20  1.1397 1.3826  79.7 21.5  61d   7
2019 08 19 12  04 24 10.635   +12 37 34.40  1.1397 1.3827  79.7 21.5  61d   7
2019 08 19 13  04 24 17.096   +12 37 56.58  1.1396 1.3828  79.7 21.5  61d   7
2019 08 19 14  04 24 23.555   +12 38 18.74  1.1395 1.3829  79.8 21.5  62d   7
2019 08 19 15  04 24 30.011   +12 38 40.89  1.1394 1.3831  79.8 21.5  62d   7
2019 08 19 16  04 24 36.465   +12 39 03.02  1.1393 1.3832  79.8 21.5  62d   7
2019 08 19 17  04 24 42.917   +12 39 25.14  1.1392 1.3833  79.8 21.5  62d   7
2019 08 19 18  04 24 49.366   +12 39 47.24  1.1391 1.3834  79.8 21.5  62d   7
2019 08 19 19  04 24 55.814   +12 40 09.32  1.1390 1.3835  79.8 21.4  62d   7
2019 08 19 20  04 25 02.259   +12 40 31.39  1.1389 1.3836  79.8 21.4  62d   7
2019 08 19 21  04 25 08.701   +12 40 53.44  1.1388 1.3837  79.8 21.4  62d   7
2019 08 19 22  04 25 15.142   +12 41 15.47  1.1387 1.3839  79.9 21.4  62d   7
2019 08 19 23  04 25 21.580   +12 41 37.49  1.1387 1.3840  79.9 21.4  62d   7
2019 08 20 00  04 25 28.016   +12 41 59.49  1.1386 1.3841  79.9 21.4  62d   7
2019 08 20 01  04 25 34.449   +12 42 21.47  1.1385 1.3842  79.9 21.4  62d   7
2019 08 20 02  04 25 40.880   +12 42 43.44  1.1384 1.3843  79.9 21.4  62d   7
2019 08 20 03  04 25 47.309   +12 43 05.39  1.1383 1.3844  79.9 21.4  62d   7
2019 08 20 04  04 25 53.736   +12 43 27.32  1.1382 1.3845  79.9 21.4  62d   8
2019 08 20 05  04 26 00.160   +12 43 49.24  1.1381 1.3847  79.9 21.4  62d   8
2019 08 20 06  04 26 06.582   +12 44 11.15  1.1380 1.3848  80.0 21.4  62d   8
2019 08 20 07  04 26 13.002   +12 44 33.03  1.1379 1.3849  80.0 21.4  62d   8
2019 08 20 08  04 26 19.419   +12 44 54.90  1.1378 1.3850  80.0 21.4  62d   8
2019 08 20 09  04 26 25.834   +12 45 16.75  1.1377 1.3851  80.0 21.4  62d   8
2019 08 20 10  04 26 32.247   +12 45 38.59  1.1377 1.3852  80.0 21.4  62d   8
2019 08 20 11  04 26 38.658   +12 46 00.41  1.1376 1.3853  80.0 21.4  62d   8
2019 08 20 12  04 26 45.066   +12 46 22.22  1.1375 1.3855  80.0 21.4  62d   8
2019 08 20 13  04 26 51.471   +12 46 44.00  1.1374 1.3856  80.0 21.4  62d   8
2019 08 20 14  04 26 57.875   +12 47 05.78  1.1373 1.3857  80.1 21.4  62d   8
2019 08 20 15  04 27 04.276   +12 47 27.53  1.1372 1.3858  80.1 21.4  62d   8
2019 08 20 16  04 27 10.675   +12 47 49.27  1.1371 1.3859  80.1 21.4  62d   8
2019 08 20 17  04 27 17.072   +12 48 10.99  1.1370 1.3860  80.1 21.4  62d   8
2019 08 20 18  04 27 23.466   +12 48 32.70  1.1369 1.3862  80.1 21.4  62d   8
2019 08 20 19  04 27 29.858   +12 48 54.39  1.1368 1.3863  80.1 21.4  62d   8
2019 08 20 20  04 27 36.247   +12 49 16.06  1.1367 1.3864  80.1 21.4  62d   8
2019 08 20 21  04 27 42.635   +12 49 37.72  1.1366 1.3865  80.2 21.4  62d   8
2019 08 20 22  04 27 49.020   +12 49 59.36  1.1366 1.3866  80.2 21.4  62d   8
2019 08 20 23  04 27 55.402   +12 50 20.99  1.1365 1.3867  80.2 21.4  62d   8
2019 08 21 00  04 28 01.782   +12 50 42.60  1.1364 1.3869  80.2 21.4  62d   8
2019 08 21 01  04 28 08.160   +12 51 04.19  1.1363 1.3870  80.2 21.4  62d   8